TimeCST,TemperatureF,Dew PointF,Humidity,Sea Level PressureIn,VisibilityMPH,Wind Direction,Wind SpeedMPH,Gust SpeedMPH,PrecipitationIn,Events,Conditions,WindDirDegrees,DateUTC
12:34 AM,24.4,19.4,81,30.02,10.0,South,5.8,-,N/A,,Clear,170,2012-11-29 06:34:00
12:55 AM,23.9,19.0,82,30.02,10.0,South,5.8,-,N/A,,Clear,180,2012-11-29 06:55:00
1:15 AM,22.6,18.3,83,30.02,10.0,Calm,Calm,-,N/A,,Clear,0,2012-11-29 07:15:00
1:35 AM,25.0,20.3,82,30.02,10.0,SSW,4.6,-,N/A,,Clear,200,2012-11-29 07:35:00
1:55 AM,25.5,20.5,81,30.02,10.0,SSW,5.8,-,N/A,,Clear,200,2012-11-29 07:55:00
2:15 AM,25.5,20.3,81,30.02,10.0,SW,3.5,-,N/A,,Clear,220,2012-11-29 08:15:00
2:35 AM,25.0,20.8,84,30.02,10.0,Calm,Calm,-,N/A,,Clear,0,2012-11-29 08:35:00
2:55 AM,26.8,22.5,84,30.02,10.0,Calm,Calm,-,N/A,,Clear,0,2012-11-29 08:55:00
3:15 AM,25.9,21.4,83,30.02,10.0,Calm,Calm,-,N/A,,Clear,0,2012-11-29 09:15:00
3:35 AM,21.2,18.0,87,30.02,10.0,Calm,Calm,-,N/A,,Clear,0,2012-11-29 09:35:00
3:55 AM,22.8,19.4,87,30.01,10.0,Calm,Calm,-,N/A,,Clear,0,2012-11-29 09:55:00
4:15 AM,21.7,18.5,87,30.00,10.0,Calm,Calm,-,N/A,,Clear,0,2012-11-29 10:15:00
4:35 AM,22.1,19.0,88,30.00,10.0,Calm,Calm,-,N/A,,Clear,0,2012-11-29 10:35:00
4:55 AM,21.9,19.2,89,30.00,10.0,NNW,3.5,-,N/A,,Clear,330,2012-11-29 10:55:00
5:15 AM,19.4,17.1,91,30.00,7.0,NW,3.5,-,N/A,,Clear,320,2012-11-29 11:15:00
5:35 AM,19.4,17.4,92,30.01,7.0,North,6.9,-,N/A,,Clear,350,2012-11-29 11:35:00
5:55 AM,18.1,16.2,92,30.02,7.0,NW,4.6,-,N/A,,Clear,320,2012-11-29 11:55:00
6:15 AM,19.2,17.2,92,30.01,7.0,NW,5.8,-,N/A,,Clear,320,2012-11-29 12:15:00
6:35 AM,19.4,17.4,92,30.02,7.0,NNW,4.6,-,N/A,,Clear,330,2012-11-29 12:35:00
6:54 AM,18.5,16.7,93,30.02,7.0,NNW,5.8,-,N/A,,Clear,340,2012-11-29 12:54:00
7:15 AM,22.1,19.4,89,30.02,10.0,North,6.9,-,N/A,,Clear,350,2012-11-29 13:15:00
7:35 AM,22.1,19.4,89,30.02,10.0,NNW,8.1,-,N/A,,Clear,340,2012-11-29 13:35:00
7:55 AM,21.6,19.4,91,30.02,7.0,North,8.1,-,N/A,,Clear,350,2012-11-29 13:55:00
8:15 AM,22.1,20.1,92,30.03,7.0,North,9.2,-,N/A,,Clear,360,2012-11-29 14:15:00
8:35 AM,22.3,20.5,93,30.03,7.0,North,10.4,-,N/A,,Clear,360,2012-11-29 14:35:00
8:55 AM,23.7,21.4,91,30.03,7.0,North,11.5,-,N/A,,Clear,360,2012-11-29 14:55:00
9:15 AM,24.6,22.1,90,30.03,7.0,North,10.4,-,N/A,,Clear,360,2012-11-29 15:15:00
9:35 AM,25.3,22.3,88,30.03,7.0,North,10.4,-,N/A,,Clear,10,2012-11-29 15:35:00
10:15 AM,28.4,23.4,81,30.05,7.0,NNE,3.5,-,N/A,,Clear,20,2012-11-29 16:15:00
10:34 AM,29.8,23.2,76,30.04,10.0,NE,6.9,-,N/A,,Clear,40,2012-11-29 16:34:00
10:55 AM,31.1,23.2,72,30.03,10.0,NE,9.2,-,N/A,,Clear,50,2012-11-29 16:55:00
11:15 AM,32.0,23.7,71,30.03,10.0,NNE,4.6,-,N/A,,Clear,30,2012-11-29 17:15:00
11:35 AM,34.3,23.9,66,30.02,10.0,NE,8.1,-,N/A,,Clear,50,2012-11-29 17:35:00
11:55 AM,34.7,23.7,64,30.02,10.0,NE,6.9,-,N/A,,Clear,50,2012-11-29 17:55:00
12:15 PM,35.8,23.7,62,30.02,10.0,NNE,8.1,-,N/A,,Clear,30,2012-11-29 18:15:00
12:35 PM,36.5,23.7,60,30.02,10.0,NE,5.8,-,N/A,,Clear,40,2012-11-29 18:35:00
12:55 PM,36.9,23.7,59,30.00,10.0,NE,6.9,-,N/A,,Clear,40,2012-11-29 18:55:00
1:15 PM,37.0,23.9,59,30.00,10.0,NE,6.9,-,N/A,,Clear,40,2012-11-29 19:15:00
1:35 PM,37.6,23.9,58,29.99,10.0,NE,8.1,-,N/A,,Clear,40,2012-11-29 19:35:00
1:55 PM,37.2,23.7,58,29.99,10.0,NNE,6.9,-,N/A,,Clear,30,2012-11-29 19:55:00
2:14 PM,37.2,23.7,58,29.98,10.0,NNE,8.1,-,N/A,,Clear,30,2012-11-29 20:14:00
2:35 PM,37.0,23.7,59,29.98,10.0,NNE,9.2,-,N/A,,Clear,20,2012-11-29 20:35:00
2:55 PM,37.0,23.7,59,29.98,10.0,NNE,10.4,-,N/A,,Clear,20,2012-11-29 20:55:00
3:15 PM,37.0,23.9,59,29.97,10.0,NE,10.4,-,N/A,,Clear,50,2012-11-29 21:15:00
3:35 PM,37.4,23.9,58,29.95,10.0,ENE,9.2,-,N/A,,Clear,60,2012-11-29 21:35:00
3:55 PM,38.1,24.3,57,29.97,10.0,NE,6.9,-,N/A,,Clear,50,2012-11-29 21:55:00
4:15 PM,38.3,24.3,57,29.96,10.0,ENE,11.5,-,N/A,,Clear,70,2012-11-29 22:15:00
4:35 PM,36.7,23.9,60,29.97,10.0,ENE,9.2,-,N/A,,Clear,70,2012-11-29 22:35:00
4:55 PM,34.9,23.5,63,29.98,10.0,ENE,8.1,-,N/A,,Clear,60,2012-11-29 22:55:00
5:15 PM,34.7,23.9,65,29.98,10.0,ENE,8.1,-,N/A,,Clear,60,2012-11-29 23:15:00
5:34 PM,34.7,23.9,65,29.99,10.0,NE,6.9,-,N/A,,Clear,50,2012-11-29 23:34:00
5:55 PM,34.7,24.4,66,29.99,10.0,ENE,8.1,-,N/A,,Clear,60,2012-11-29 23:55:00
6:15 PM,34.5,24.4,67,30.00,10.0,NE,6.9,-,N/A,,Clear,40,2012-11-30 00:15:00
6:35 PM,34.0,24.4,68,30.01,10.0,NE,8.1,-,N/A,,Clear,50,2012-11-30 00:35:00
6:55 PM,34.2,24.6,68,30.00,10.0,ENE,8.1,-,N/A,,Clear,60,2012-11-30 00:55:00
7:15 PM,33.6,24.4,69,30.00,10.0,ENE,10.4,-,N/A,,Clear,60,2012-11-30 01:15:00
7:35 PM,33.3,24.3,70,29.98,10.0,ENE,13.8,-,N/A,,Mostly Cloudy,60,2012-11-30 01:35:00
7:55 PM,33.3,24.3,70,29.98,10.0,ENE,10.4,-,N/A,,Overcast,60,2012-11-30 01:55:00
8:15 PM,33.4,24.4,70,30.00,10.0,ENE,13.8,-,N/A,,Overcast,70,2012-11-30 02:15:00
8:35 PM,33.3,24.4,70,29.99,10.0,ENE,10.4,-,N/A,,Overcast,70,2012-11-30 02:35:00
8:55 PM,33.1,24.6,71,30.01,10.0,ENE,6.9,-,N/A,,Overcast,70,2012-11-30 02:55:00
9:15 PM,32.9,24.6,72,30.02,10.0,ENE,6.9,-,N/A,,Overcast,70,2012-11-30 03:15:00
9:35 PM,32.2,24.3,73,30.02,10.0,NNE,5.8,-,N/A,,Mostly Cloudy,30,2012-11-30 03:35:00
9:54 PM,32.0,24.3,73,30.02,10.0,NE,6.9,-,N/A,,Scattered Clouds,50,2012-11-30 03:54:00
10:15 PM,32.0,24.1,73,30.00,10.0,NE,9.2,-,N/A,,Mostly Cloudy,50,2012-11-30 04:15:00
10:55 PM,31.1,23.9,75,30.00,10.0,NE,9.2,-,N/A,,Scattered Clouds,40,2012-11-30 04:55:00
11:15 PM,30.6,23.9,76,30.01,10.0,NNE,6.9,-,N/A,,Clear,30,2012-11-30 05:15:00
11:35 PM,30.0,23.9,78,30.01,10.0,NNE,4.6,-,N/A,,Clear,30,2012-11-30 05:35:00
11:55 PM,29.7,24.3,80,30.01,7.0,NNE,6.9,-,N/A,,Clear,20,2012-11-30 05:55:00